This is the latest recevied weather packets stored in our database for station/object KG5MMT-12. If no packets are shown the sender has not sent any weather packets the latest 10 day(s).
| Time | Temp. | Humidity | Pressure | Rain* | Wind** | Luminosity | Snow |
|---|---|---|---|---|---|---|---|
| 1777665240 | 4.44° C | 89% | 0 hPa | 1.27 mm | - | - | - |
| 1777664940 | 4.44° C | 89% | 0 hPa | 1.27 mm | - | - | - |
| 1777664640 | 4.44° C | 89% | 0 hPa | 1.52 mm | - | - | - |
| 1777664340 | 3.89° C | 91% | 0 hPa | 1.78 mm | - | - | - |
| 1777664040 | 3.89° C | 88% | 0 hPa | 1.78 mm | - | - | - |
| 1777663740 | 3.89° C | 90% | 0 hPa | 1.78 mm | - | - | - |
| 1777663440 | 3.89° C | 88% | 0 hPa | 2.03 mm | - | - | - |
| 1777663140 | 3.89° C | 90% | 0 hPa | 2.03 mm | - | - | - |
| 1777662840 | 3.89° C | 90% | 0 hPa | 2.03 mm | - | - | - |
| 1777662540 | 3.89° C | 89% | 0 hPa | 2.03 mm | - | - | - |
| 1777662240 | 3.33° C | 90% | 0 hPa | 2.29 mm | - | - | - |
| 1777661940 | 3.33° C | 90% | 0 hPa | 2.29 mm | - | - | - |
| 1777661640 | 3.89° C | 90% | 0 hPa | 2.29 mm | - | - | - |
| 1777661340 | 3.33° C | 91% | 0 hPa | 2.54 mm | - | - | - |
| 1777661040 | 3.33° C | 89% | 0 hPa | 2.54 mm | - | - | - |
| 1777660740 | 3.33° C | 91% | 0 hPa | 2.29 mm | - | - | - |
| 1777660440 | 3.33° C | 90% | 0 hPa | 2.54 mm | - | - | - |
| 1777660140 | 3.33° C | 90% | 0 hPa | 2.54 mm | - | - | - |
| 1777659840 | 3.33° C | 90% | 0 hPa | 2.54 mm | - | - | - |
| 1777659540 | 3.33° C | 89% | 0 hPa | 2.79 mm | - | - | - |
| 1777659240 | 3.33° C | 91% | 0 hPa | 2.79 mm | - | - | - |
| 1777658940 | 3.33° C | 91% | 0 hPa | 2.79 mm | - | - | - |
| 1777658640 | 3.33° C | 93% | 0 hPa | 2.79 mm | - | - | - |
| 1777658340 | 2.78° C | 91% | 0 hPa | 2.54 mm | - | - | - |
| 1777658040 | 3.33° C | 92% | 0 hPa | 2.54 mm | - | - | - |
* Rain latest hour (hover to see other rain measurements)
** Current wind speed in m/s (hover to see current wind gust speed)